User: anonymous   Login
Location: Bishop�s Knoyle
(51.0728°N, 2.1714°W)
Time: 13:22:21
(UTC+00:00)
Language:

Cosmos 1782 Rocket - Orbit

View from above orbital plane
View from above orbital plane
View from above satellite
View from above satellite

Ground track
Ground track

The orbit data is extracted from the following two-line orbital elements,

1 16987U 86074B   21135.82588358  .00000086  00000-0  76347-5 0  9991
2 16987  82.5189  52.3553 0016948 230.8968 187.6091 14.83110339849100
Epoch (UTC): 15 May 2021 19:49:16
Eccentricity: 0.0016948
inclination: 82.5189°
perigee height: 607 km
apogee height: 631 km
right ascension of ascending node: 52.3553°
argument of perigee: 230.8968°
revolutions per day: 14.83110339
mean anomaly at epoch: 187.6091°
orbit number at epoch: 84910

The dashed part of the orbit path shows where the satellite is in the earth's shadow,  

DLR